Temp
68 68 69 69 69 69 68 69 68 68 68 70 70 70 69 69 72 73 73 72 71 71 70 70 70 68 68 67 66 67 64 66
64 65 68 67 66 68 68 67 67 68 69 69 69 69 69 69 70 73 72 71 71 70 70 69 69 68 67 66 66 66 64 65
63 66 67 66 64 66 68 68 68 68 68 68 67 66 68 68 68 72 71 70 70 69 68 68 68 67 66 66 66 63 63 62
64 64 64 65 65 63 62 64 64 63 64 65 66 66 67 68 68 69 69 68 68 68 67 67 67 65 65 65 63 63 62 61
62 64 65 64 64 62 62 63 63 62 62 62 63 64 65 66 66 66 66 67 66 66 64 63 65 64 62 61 63 63 63 64
62 63 64 65 64 63 63 62 62 61 63 63 63 64 64 66 65 64 64 64 61 61 59 60 62 63 62 61 62 63 62 62
62 62 62 62 64 63 63 62 61 62 64 64 64 64 64 65 65 64 62 62 62 61 59 61 62 62 62 61 62 62 60 62
61 62 62 62 62 63 63 63 62 62 63 64 65 65 64 64 64 62 63 63 60 61 60 60 61 63 60 61 62 61 60 58
62 60 59 60 60 61 63 63 63 63 63 64 64 64 64 64 63 62 63 64 63 63 59 59 61 64 60 60 61 61 59 58
60 61 58 57 59 60 62 63 63 63 64 64 63 63 63 62 62 62 62 62 62 62 62 60 60 61 59 60 60 60 58 57
60 58 57 57 59 59 61 62 62 63 62 63 63 63 62 62 62 61 60 61 61 62 59 61 58 58 59 57 57 57 57 60
62 59 57 58 59 60 60 61 61 62 62 62 63 63 61 60 60 59 61 59 59 57 59 58 58 59 62 59 56 56 57 56
62 59 58 58 58 58 58 58 60 60 62 62 63 63 61 60 59 59 60 61 60 59 59 58 54 56 54 53 54 55 55 55
61 61 60 58 60 60 60 59 60 61 61 62 62 63 62 61 61 60 62 61 60 57 59 57 55 56 55 53 50 53 54 56
61 62 61 59 59 61 60 58 59 58 58 60 60 62 62 61 60 61 61 62 60 60 59 59 56 56 60 54 49 49 51 53
59 61 61 62 59 58 59 58 57 59 59 59 59 60 61 62 61 60 61 61 60 60 61 62 57 57 55 57 57 54 50 48
58 59 61 61 61 60 59 58 59 59 59 58 59 58 60 62 61 60 60 61 61 60 59 58 57 57 55 54 54 53 53 51
57 60 61 61 61 60 60 59 59 57 57 57 57 58 58 59 61 61 61 60 59 60 58 57 56 57 59 58 57 55 53 52
60 60 60 61 60 60 60 60 60 59 58 57 57 58 57 57 58 60 61 61 60 59 59 57 57 56 58 59 58 57 57 55
59 58 59 60 61 61 61 61 61 58 58 57 56 58 59 57 57 59 61 61 61 60 59 59 59 58 57 58 59 59 57 57
MSLP
1008.56 1008.93 1009.06 1009.33 1009.62 1010.04 1010.43 1010.71 1011.17 1011.65 1011.95 1011.92 1012.11 1012.76 1012.73 1012.49 1014.39 1014.61 1014.48 1015.07 1015.37 1015.81 1016.10 1016.79 1017.22 1017.67 1017.96 1018.09 1018.47 1018.68 1019.12 1019.61
1008.86 1009.10 1009.28 1009.48 1009.87 1010.16 1010.51 1011.02 1011.27 1011.37 1011.67 1011.87 1012.18 1012.44 1012.70 1012.84 1013.90 1014.31 1014.46 1014.94 1015.76 1016.33 1016.36 1017.04 1017.50 1018.01 1018.25 1018.40 1018.78 1019.28 1019.57 1020.04
1008.98 1009.11 1009.20 1009.46 1009.82 1010.13 1010.39 1010.80 1010.98 1011.25 1011.53 1011.80 1012.35 1012.62 1012.81 1013.43 1013.72 1014.17 1014.22 1015.13 1015.95 1016.44 1016.74 1017.26 1017.66 1018.23 1018.68 1018.92 1019.14 1019.85 1020.05 1020.52
1008.79 1009.01 1009.24 1009.36 1009.73 1010.07 1010.36 1010.72 1011.07 1011.29 1011.51 1011.80 1012.22 1012.59 1012.92 1013.15 1013.94 1014.44 1014.25 1015.32 1015.99 1016.62 1017.04 1017.46 1017.94 1018.60 1019.09 1019.26 1019.69 1020.14 1020.50 1020.78
1008.45 1008.74 1009.12 1009.33 1009.75 1010.09 1010.32 1010.60 1011.08 1011.35 1011.54 1011.98 1012.31 1012.59 1012.94 1013.41 1013.88 1014.58 1014.64 1015.55 1016.14 1016.83 1017.28 1017.78 1018.17 1018.52 1019.25 1019.77 1019.95 1020.45 1020.71 1020.99
1008.11 1008.36 1008.78 1009.11 1009.46 1009.96 1010.19 1010.57 1010.86 1011.18 1011.26 1011.73 1012.23 1012.48 1012.77 1013.09 1013.72 1014.51 1015.02 1015.83 1016.31 1016.96 1017.44 1017.98 1018.31 1018.88 1019.43 1019.93 1020.09 1020.53 1021.12 1021.04
1007.82 1007.98 1008.42 1008.94 1009.28 1009.67 1010.07 1010.42 1010.69 1010.86 1011.00 1011.31 1011.64 1011.97 1012.38 1012.95 1013.67 1014.51 1015.13 1015.85 1016.21 1016.91 1017.42 1018.09 1018.52 1019.14 1019.61 1019.95 1020.25 1020.82 1021.20 1021.21
1007.56 1007.81 1008.10 1008.62 1009.02 1009.36 1009.75 1010.04 1010.32 1010.54 1010.57 1010.78 1010.93 1010.96 1011.61 1012.73 1013.62 1014.48 1015.10 1015.63 1016.35 1016.99 1017.23 1018.07 1018.54 1019.00 1019.93 1020.25 1020.32 1020.98 1021.22 1021.52
1007.21 1007.59 1007.97 1008.42 1008.71 1009.14 1009.46 1009.69 1010.12 1010.46 1010.37 1010.64 1009.72 1010.77 1011.50 1012.47 1013.52 1014.44 1014.94 1015.45 1016.23 1017.19 1017.71 1018.17 1018.64 1019.03 1019.98 1020.32 1020.64 1021.02 1021.43 1021.64
1007.06 1007.44 1007.92 1008.43 1008.73 1009.25 1009.40 1009.54 1009.81 1010.30 1010.37 1010.60 1010.66 1011.01 1011.88 1012.86 1013.57 1014.38 1014.68 1015.44 1016.18 1017.30 1017.82 1018.36 1018.68 1019.24 1019.90 1020.45 1020.88 1021.19 1021.81 1021.88
1006.88 1007.33 1007.82 1008.41 1008.77 1009.25 1009.50 1009.56 1009.75 1010.07 1010.41 1010.64 1010.91 1011.33 1012.28 1013.10 1013.53 1014.24 1014.80 1015.59 1016.27 1016.92 1017.84 1018.17 1018.68 1019.50 1020.07 1020.49 1021.35 1021.33 1022.03 1022.16
1006.73 1007.28 1007.76 1008.29 1008.68 1009.17 1009.60 1009.75 1009.93 1009.98 1010.24 1010.48 1010.95 1011.51 1012.32 1013.17 1013.63 1014.53 1014.82 1015.76 1016.64 1017.04 1017.62 1018.22 1018.61 1019.42 1020.12 1020.88 1021.60 1021.60 1022.08 1022.16
1006.53 1007.17 1007.58 1008.07 1008.66 1009.09 1009.57 1009.77 1009.88 1010.11 1010.15 1010.35 1010.76 1011.38 1012.22 1013.03 1013.86 1014.58 1014.90 1015.90 1016.45 1016.96 1017.57 1018.15 1019.31 1019.29 1020.37 1021.56 1022.18 1022.11 1022.43 1022.48
1006.17 1006.81 1007.13 1007.73 1008.25 1008.75 1009.23 1009.75 1010.05 1010.26 1010.46 1010.64 1010.58 1011.32 1012.12 1012.95 1013.84 1014.79 1015.17 1015.74 1016.25 1016.82 1017.14 1017.84 1018.75 1019.21 1019.90 1021.11 1022.32 1022.66 1022.29 1022.70
1005.51 1006.27 1006.59 1007.40 1008.01 1008.64 1009.09 1009.73 1010.17 1010.38 1010.62 1010.74 1011.15 1011.13 1011.92 1012.80 1013.64 1014.56 1015.18 1015.63 1016.16 1016.67 1016.92 1017.32 1018.09 1019.06 1019.40 1019.89 1021.22 1021.62 1022.03 1022.37
1005.37 1005.97 1006.41 1007.06 1007.76 1008.26 1008.57 1009.17 1009.74 1010.05 1010.38 1010.77 1011.20 1011.15 1011.66 1012.60 1013.40 1014.17 1014.95 1015.30 1015.89 1016.27 1016.60 1017.09 1017.58 1018.54 1019.39 1019.30 1019.25 1019.77 1021.39 1022.33
1005.16 1005.65 1006.29 1006.68 1007.41 1007.79 1008.28 1008.89 1009.46 1009.84 1010.37 1010.80 1011.30 1011.43 1011.72 1012.32 1013.09 1013.89 1014.59 1015.35 1015.49 1016.07 1016.44 1017.00 1017.30 1017.91 1018.25 1018.90 1019.36 1019.98 1020.41 1021.03
1004.93 1005.40 1006.05 1006.39 1007.14 1007.57 1007.90 1008.43 1009.05 1009.78 1010.35 1010.78 1011.22 1011.57 1012.02 1012.49 1012.94 1013.67 1014.39 1014.71 1015.15 1015.69 1016.10 1016.62 1017.14 1017.41 1017.84 1018.15 1018.62 1019.21 1019.76 1020.16
1004.37 1005.14 1005.70 1006.01 1006.78 1007.29 1007.65 1007.97 1008.51 1009.18 1009.91 1010.58 1011.10 1011.52 1012.01 1012.44 1012.83 1013.49 1013.93 1014.08 1014.77 1015.26 1015.82 1016.22 1016.91 1017.32 1017.41 1017.72 1018.10 1018.46 1018.69 1019.30
1003.64 1004.59 1005.31 1005.65 1006.27 1006.90 1007.39 1007.62 1008.13 1008.79 1009.28 1009.88 1010.56 1011.05 1011.54 1012.08 1012.66 1013.25 1013.51 1013.86 1014.32 1014.97 1015.43 1015.52 1016.18 1016.96 1017.26 1017.32 1017.49 1017.77 1018.22 1018.50
Wind_Speed
8 8 10 12 12 11 9 14 13 13 15 16 22 22 17 19 18 19 18 18 21 21 21 18 18 19 18 17 15 15 9 6
6 6 7 8 7 11 9 10 11 13 15 16 20 20 19 18 18 22 24 20 18 19 20 17 19 18 17 17 16 14 8 7
6 8 7 7 6 6 9 10 12 15 16 15 14 9 12 14 12 21 23 19 17 18 18 16 20 19 17 18 14 5 7 4
8 7 7 8 5 5 5 6 6 5 7 9 9 9 9 14 14 21 21 19 18 17 17 18 17 9 8 12 5 6 5 5
7 7 8 8 7 5 3 3 4 4 5 5 7 7 7 7 7 6 7 14 9 10 11 7 11 9 6 5 7 7 5 5
7 7 8 8 5 6 6 5 5 4 7 10 7 6 8 10 8 8 7 7 9 7 4 7 9 8 8 8 9 7 4 3
8 8 7 7 8 6 6 7 5 6 6 10 11 10 13 10 9 8 7 6 8 8 7 7 9 8 8 9 8 8 5 4
8 9 8 8 6 8 7 6 5 4 4 7 15 9 11 10 9 8 8 8 7 7 8 6 7 8 7 8 9 7 5 5
12 9 7 7 7 4 5 6 6 5 4 5 7 11 11 11 9 8 8 7 9 7 6 4 6 7 8 7 7 6 5 5
10 8 8 7 6 5 3 4 6 5 5 5 8 9 10 9 8 7 8 7 8 7 8 6 6 7 7 6 5 5 5 5
12 10 9 10 9 5 3 4 5 6 4 6 10 10 9 8 7 7 8 7 7 9 4 7 7 6 6 6 3 5 5 5
12 9 10 10 5 5 3 3 3 4 6 6 11 10 11 7 6 6 8 6 6 4 7 3 5 7 7 6 3 3 4 4
15 12 12 10 7 5 3 2 3 2 5 7 10 10 12 10 7 6 7 9 8 6 5 6 3 5 6 4 3 3 1 2
15 15 15 10 9 6 3 3 2 2 3 7 8 12 13 10 11 9 9 8 8 6 7 4 4 4 4 4 3 0 1 3
18 17 15 9 11 8 5 4 3 2 3 5 3 12 13 12 10 9 8 8 7 7 6 7 5 3 9 5 3 4 3 3
13 16 15 13 11 9 12 7 5 3 4 4 4 8 10 12 11 8 8 5 7 7 6 7 5 9 1 1 3 6 4 2
13 13 15 14 13 10 9 8 5 4 4 7 6 5 7 10 12 11 8 8 8 8 6 5 4 6 4 3 2 2 2 3
12 14 14 14 14 12 13 12 10 7 7 7 6 6 5 6 9 11 10 9 8 8 6 7 6 6 7 6 5 5 4 4
15 16 17 15 13 12 13 13 13 12 10 9 9 7 6 8 10 11 9 8 9 8 7 6 5 4 10 7 5 4 4 3
19 16 17 15 15 15 13 12 9 8 9 7 6 7 8 7 6 7 8 8 8 9 7 6 7 6 8 8 7 7 4 4
Wind_Direction
152 161 157 157 156 169 168 144 151 172 178 176 177 175 165 156 217 189 165 152 141 142 136 128 132 132 128 121 117 111 103 107
146 149 157 150 154 164 167 188 187 202 194 192 172 165 165 170 211 193 171 138 143 140 131 127 138 133 129 119 112 106 107 117
164 170 170 164 160 177 189 184 164 175 175 175 164 168 163 187 207 206 157 135 141 138 120 123 136 134 129 122 112 110 106 105
180 176 175 165 164 161 157 170 165 160 176 169 170 173 183 178 200 198 147 133 136 132 126 128 135 135 130 118 121 120 110 120
182 172 173 160 169 161 165 160 170 177 172 178 181 170 177 185 169 164 152 134 139 134 124 126 142 137 134 130 129 130 136 141
174 165 165 158 165 171 173 172 177 174 188 195 186 187 190 167 163 159 158 155 139 136 133 127 138 137 139 137 135 138 154 136
176 159 160 160 170 169 170 183 187 194 190 191 203 207 181 169 156 155 146 150 146 146 136 134 139 136 139 141 140 146 147 141
170 170 165 154 160 168 172 174 185 183 177 194 211 180 151 153 151 150 153 154 139 150 147 143 136 140 143 150 142 148 138 130
172 163 154 160 152 155 163 168 170 191 187 152 139 148 146 152 150 154 153 151 145 150 137 130 126 140 143 147 143 142 132 141
160 156 152 148 143 175 170 164 169 186 176 164 146 138 141 151 149 153 144 141 143 161 155 141 136 143 138 145 147 135 150 141
165 156 152 155 155 151 187 163 169 173 152 165 161 150 145 158 150 146 142 147 155 159 142 149 137 136 140 119 138 134 160 151
165 158 147 151 141 113 127 148 127 176 167 166 154 156 149 144 122 145 142 140 149 134 156 108 139 141 133 118 125 116 149 159
175 165 160 150 152 144 134 156 153 150 170 174 157 151 154 152 149 148 154 168 161 155 146 131 96 121 107 71 42 89 141 170
174 179 170 160 164 152 131 134 135 138 143 168 169 154 149 151 154 170 173 165 166 164 164 131 107 177 129 118 133 349 157 210
176 179 172 161 157 156 129 108 96 129 141 162 152 156 152 154 157 165 169 176 176 173 157 161 139 182 167 144 138 197 129 169
170 171 172 175 161 162 159 167 168 175 159 153 141 146 145 148 159 154 168 171 174 184 174 177 147 177 166 255 106 126 167 182
168 161 174 174 179 169 167 167 167 142 157 162 164 144 144 158 165 171 173 190 184 179 164 168 181 164 168 137 114 116 107 144
165 168 177 175 183 178 177 176 168 160 171 174 173 168 154 158 168 178 186 174 176 183 173 168 179 177 193 188 176 168 178 152
168 177 187 177 180 185 185 180 176 182 178 185 175 174 174 179 175 191 190 178 180 172 183 170 177 192 192 195 184 191 147 164
172 175 185 181 187 191 191 181 183 184 178 174 178 192 194 155 175 182 188 184 185 189 188 193 211 218 214 205 198 200 177 174